This demonstration page uses our WeatherBlox Daily Observations layout. Learn more.

Left ArrowRight Arrow

44.31136, -96.79839

Hourly Observations for May 17, 2022

Temp ( °F °C ) Dew Point ( °F °C ) Humidity (%) Winds ( mph kmh ) Pressure ( in mb ) Visibility ( mi km ) Precip ( " mm )
12:56 am 00:56 Cloudy with Light Rain 50 10 49 9.4 96 96 ENE 12 19 30.01 1016 8 13 0.09 2.29
1:56 am 01:56 Cloudy with Light Rain 49 9.4 48 8.9 97 97 ENE 12 19 30.03 1017 10 16 0.05 1.27
2:56 am 02:56 Mostly Cloudy 49 9.4 48 8.9 97 97 ESE 17 28 30.01 1016 10 16 0.04 1.02
3:56 am 03:56 Cloudy with Light Rain 49 9.4 48 8.9 97 97 E 9 15 30.02 1017 10 16 0.00 0.00
4:56 am 04:56 Cloudy with Rain 48 8.9 47 8.3 96 96 ESE 5 7 30.04 1017 9 14 0.02 0.51
5:56 am 05:56 Cloudy with Light Rain 47 8.3 47 8.3 100 100 SE 10 17 30.01 1016 10 16 0.09 2.29
6:56 am 06:56 Cloudy with Light Rain 47 8.3 47 8.3 100 100 SE 6 9 30.04 1017 10 16 0.02 0.51
7:56 am 07:56 Cloudy with Light Rain 47 8.3 47 8.3 100 100 ESE 13 20 30.01 1016 10 16 0.12 3.05
8:56 am 08:56 Cloudy 50 10 48 8.9 93 93 SE 15 24 30.01 1016 10 16 0.00 0.00
9:56 am 09:56 Mostly Cloudy 56 13.3 51 10.6 84 84 SE 17 28 29.97 1015 10 16 0.00 0.00
10:56 am 10:56 Mostly Sunny 59 15 50 10 72 72 SE 16 26 29.96 1015 10 16 0.00 0.00
11:56 am 11:56 Cloudy 58 14.4 49 9.4 72 72 SE 20 31 29.95 1014 10 16 0.00 0.00
12:56 pm 12:56 Cloudy 60 15.6 50 10 70 70 ESE 17 28 29.95 1014 10 16 0.00 0.00
1:56 pm 13:56 Cloudy 62 16.7 50 10 65 65 ESE 20 31 29.94 1014 10 16 0.00 0.00
2:56 pm 14:56 Cloudy 63 17.2 51 10.6 65 65 ESE 16 26 29.93 1014 10 16 0.00 0.00
3:07 pm 15:07 Cloudy with Nearby Thunderstorms 61 16 54 12 77 77 ESE 12 19 29.87 1012 10 16 0.00 0.00
3:11 pm 15:11 Cloudy with Nearby Thunderstorms 59 15 54 12 82 82 ESE 12 19 29.88 1012 10 16 0.00 0.00
3:28 pm 15:28 Cloudy with Strong Thunderstorms 55 13 55 13 100 100 E 15 24 29.89 1012 2 3 0.27 6.86
3:39 pm 15:39 Cloudy with Thunderstorms 57 14 55 13 94 94 E 15 24 29.88 1012 3 5 0.39 9.91
3:56 pm 15:56 Cloudy with Nearby Thunderstorms 56 13.3 55 12.8 97 97 E 15 24 29.94 1014 10 16 0.40 10.16
4:06 pm 16:06 Cloudy 55 13 55 13 100 100 E 10 17 29.89 1012 10 16 0.00 0.00
4:56 pm 16:56 Cloudy 56 13.3 55 12.8 97 97 E 9 15 29.95 1014 10 16 0.00 0.00
5:56 pm 17:56 Cloudy 57 13.9 56 13.3 96 96 E 9 15 29.93 1014 10 16 0.00 0.00
6:56 pm 18:56 Cloudy 56 13.3 54 12.2 93 93 E 14 22 29.92 1013 10 16 0.00 0.00
7:56 pm 19:56 Cloudy 56 13.3 52 11.1 87 87 E 13 20 29.93 1014 10 16 0.00 0.00
8:56 pm 20:56 Cloudy 55 12.8 52 11.1 90 90 E 12 19 29.92 1013 10 16 0.00 0.00
9:56 pm 21:56 Cloudy 55 12.8 52 11.1 90 90 E 9 15 29.95 1014 10 16 0.00 0.00
10:56 pm 22:56 Mostly Cloudy 54 12.2 52 11.1 93 93 E 9 15 29.94 1014 10 16 0.00 0.00
11:56 pm 23:56 Mostly Clear 53 11.7 51 10.6 93 93 E 5 7 29.95 1014 10 16 0.00 0.00

Powered by AerisWeather